Regional Weather Roundup
Issued by NWS Northern Indiana

Home | Current Version | Previous Version | Graphics & Text | Print | Product List | Glossary On
Versions: 1 2 3 4 5 6 7 8 9 10 11 12 13 14 15 16 17 18 19 20 21 22 23 24 25 26 27 28 29 30 31 32 33 34 35 36 37 38 39 40 41 42 43 44 45 46 47 48 49 50
000
ASUS43 KIWX 232210
RWRIWX

KIWX WEATHER ROUNDUP
NATIONAL WEATHER SERVICE NORTHERN INDIANA
600 PM EDT WED APR 23 2014

NOTE: "FAIR" INDICATES FEW OR NO CLOUDS BELOW 12,000 FEET WITH NO
SIGNIFICANT WEATHER AND/OR OBSTRUCTIONS TO VISIBILITY.

* THESE STATIONS ARE NOT UNDER NWS QUALITY CONTROL. THEY ALSO MAY NOT
  REPORT WEATHER SUCH AS PRECIPITATION OR FOG.

INZ001>027-232300-
NORTHERN INDIANA

CITY           SKY/WX    TMP DP  RH WIND       PRES   REMARKS
GARY*          MOSUNNY   43  30  61 N10       30.15S
VALPARAISO     SUNNY     49  30  48 N8        30.10F
MICHIGAN CITY* SUNNY     43  28  56 N7        30.12S
LAPORTE*       SUNNY     48  31  52 N10       30.11S
SOUTH BEND     SUNNY     54  34  46 N12       30.10F
ELKHART*       SUNNY     57  27  30 N6        30.07F
GOSHEN         SUNNY     58  27  30 N6        30.07F
MONTICELLO*    SUNNY     59  28  30 E5        30.05F
LOGANSPORT*    SUNNY     59  23  25 E7        30.07F
ROCHESTER*     SUNNY     61  28  29 NE8       30.07F
WARSAW*        SUNNY     55  28  35 E5        30.07F
ANGOLA*        SUNNY     55  25  30 NE6       30.07F
FORT WAYNE     MOSUNNY   58  25  28 VRB5      30.07F
HUNTINGTON*    FAIR      57  30  35 NE7       30.06F
PERU/GRISSOM   SUNNY     59  29  32 N7        30.06F
MARION*        SUNNY     58  25  28 E3        30.07F

$$
INZ028>050-232300-
CENTRAL INDIANA

CITY           SKY/WX    TMP DP  RH WIND       PRES   REMARKS
LAFAYETTE      SUNNY     58  27  30 VRB5      30.07S
KOKOMO*        SUNNY     59  28  31 NE9       30.06F
MUNCIE*        SUNNY     58  30  34 N8        30.06F
INDIANAPOLIS   MOSUNNY   58  30  34 VRB5      30.05F

$$
MIZ043>046-050>051-056>058-064>065-071>073-077>080-232300-
SOUTHWEST LOWER MICHIGAN

CITY           SKY/WX    TMP DP  RH WIND       PRES   REMARKS
BATTLE CREEK   MOSUNNY   56  20  24 N3        30.08F
BENTON HARBOR  MOSUNNY   41  27  57 N9        30.12F
COLDWATER*     SUNNY     55  16  21 NE7       30.08S
HILLSDALE*     SUNNY     56  17  21 NW9       30.07S
HOLLAND        PTSUNNY   47  25  42 NW9       30.11F
GRAND RAPIDS   CLOUDY    54  30  40 W14       30.08F
KALAMAZOO      MOSUNNY   57  21  24 N3        30.07F
STURGIS*       SUNNY     55  25  30 N7        30.07S
THREE RIVERS*  FAIR      57  20  23 NE3       30.08S

$$
OHZ001>008-015>018-024>025-232300-
NORTHWEST OHIO

CITY           SKY/WX    TMP DP  RH WIND       PRES   REMARKS
WAUSEON*       FAIR      57  21  24 N10       30.07S
DEFIANCE       SUNNY     59  24  26 N9        30.07F
FINDLAY        SUNNY     56  28  34 N7        30.06F
TOLEDO EXPRESS SUNNY     57  20  23 N10G16    30.07S
TOLEDO METCALF SUNNY     56  28  34 NE9       30.08F
LIMA           SUNNY     57  30  35 NE12      30.06F

$$
&&



USA.gov is the U.S. government's official web portal to all federal, state and local government web resources and services.